Location: Mount Cross
(36.6390°N, 79.4878°W)
Time: 00:47:15
(UTC+00:00)

Vanguard 2 Rocket - Pass Details

Date: 30 March 2023
Orbit: 554 x 3314 km, 32.9° (Epoch: 08 June)

Event Time Altitude Azimuth Distance (km) Brightness Sun altitude
Rises 02:58:55 0° 274° (W) 3,951 10.8 -37.6°
Reaches altitude 10° 03:01:10 10° 270° (W) 3,250 10.2 -38.0°
Enters shadow 03:07:47 56° 229° (SW) 1,993 8.4 -38.9°
